Wind_Speed
17 15 12 12 14 15 18 19 17 15 14 14 15 14 14 13 14 15 17 17 18 20 20 20 25 23 24 23 23 24 24 22 15 29 25 18 14 12 12 13 13 15 17
12 9 7 5 7 9 8 5 5 6 7 9 10 11 12 14 15 17 19 19 20 22 23 23 27 24 25 27 26 26 26 24 25 21 24 17 16 13 12 11 11 11 14
18 14 11 8 6 4 4 3 3 6 8 11 13 15 17 17 17 18 19 21 22 24 26 26 27 25 27 24 26 26 27 25 27 26 24 16 16 12 11 9 7 9 10
21 21 20 11 7 5 4 4 4 9 10 12 12 13 14 15 16 17 18 19 21 23 25 26 28 27 29 28 26 27 28 25 24 24 22 18 16 13 8 7 7 7 9
23 20 20 11 6 4 4 6 7 8 8 9 10 11 12 14 14 16 19 21 21 23 25 26 28 29 30 30 29 27 25 24 23 20 16 13 14 11 10 5 4 5 2
20 18 16 8 9 8 7 7 7 8 9 10 11 13 16 15 18 19 21 21 21 23 25 26 27 28 29 31 34 35 35 27 24 21 20 15 18 14 11 9 10 6 2
22 19 13 10 13 10 7 8 10 9 9 9 12 14 14 16 17 20 21 22 24 25 25 24 27 27 27 28 28 31 32 33 34 28 23 20 16 19 16 14 14 10 6
17 18 12 12 12 8 7 7 7 8 11 13 12 12 14 15 19 20 23 22 19 21 24 25 25 26 26 29 26 21 24 25 28 25 21 18 16 19 21 16 16 11 11
16 15 13 10 7 7 10 8 10 13 12 11 11 13 15 16 20 21 22 24 23 23 20 21 21 24 28 28 27 21 20 20 19 20 17 16 17 17 19 18 19 17 7
14 13 10 8 10 12 9 10 12 13 13 13 13 13 15 19 25 23 23 22 21 21 21 20 18 18 21 21 23 21 18 20 17 19 17 16 16 17 16 16 20 17 11
14 13 12 12 12 10 9 12 14 13 14 15 15 16 20 22 26 27 25 23 22 20 17 19 20 25 19 17 17 19 21 17 18 14 14 14 16 19 13 14 15 12 13
14 15 14 12 12 11 12 13 13 12 14 18 19 17 18 19 25 27 26 24 22 17 18 20 22 25 19 14 16 24 18 17 16 16 17 17 14 14 17 14 14 11 11
13 12 13 12 12 12 12 12 12 14 14 14 14 15 15 18 21 30 27 27 24 20 17 18 18 21 16 12 8 8 16 19 19 19 17 16 18 19 20 18 15 14 15
13 12 11 10 11 10 10 11 13 13 12 11 13 12 15 21 23 26 24 24 24 22 19 18 17 18 15 12 15 15 15 15 8 10 18 22 22 23 20 19 17 15 15
13 11 10 10 8 7 8 9 9 8 8 7 10 13 14 19 22 23 22 22 20 22 21 19 23 21 20 20 18 15 18 19 27 22 24 19 19 16 16 15 14 12 14
13 11 10 9 8 8 8 7 7 5 5 6 10 13 12 15 18 22 21 19 18 18 25 21 20 20 22 21 20 19 20 21 26 28 22 13 16 15 15 13 12 13 13
13 12 9 8 7 5 3 3 5 5 6 6 8 9 11 13 16 20 19 20 22 18 19 18 18 18 18 24 22 20 20 22 19 21 22 16 16 11 10 11 10 10 10
10 11 9 7 6 4 3 1 2 4 6 6 7 9 10 13 14 17 17 17 18 23 18 16 16 19 21 16 17 16 17 22 29 27 25 22 20 19 21 20 15 5 7
12 10 9 7 5 4 3 3 4 4 6 7 9 9 11 14 12 11 12 11 10 12 16 14 14 12 19 13 10 7 7 8 12 18 20 17 15 13 12 12 11 4 3
12 12 11 8 7 7 6 6 6 7 8 8 9 9 10 12 10 9 8 7 7 7 8 7 10 9 16 15 12 10 10 7 5 4 6 8 9 10 13 11 10 9 8
14 14 16 12 10 8 7 7 8 8 8 9 9 9 10 9 10 9 8 7 5 5 7 6 5 5 7 9 9 9 9 9 7 6 5 4 2 2 2 2 3 3 3
15 15 14 14 11 9 9 9 9 8 8 10 9 8 11 6 8 7 6 5 4 2 3 5 5 6 6 6 6 6 6 7 5 5 3 3 3 3 3 2 2 2 2
18 16 14 13 12 9 10 10 9 8 8 9 8 7 6 6 5 5 4 3 3 2 2 3 6 6 5 5 4 3 2 2 1 3 3 2 1 1 1 2 1 2 2
21 19 16 13 11 9 11 11 9 9 9 8 7 8 7 7 5 5 4 3 2 2 2 2 2 3 3 2 1 1 1 2 2 3 3 2 2 2 1 1 1 0 3
18 19 18 17 17 16 13 11 8 8 8 8 8 8 7 7 6 6 5 4 3 3 2 3 2 2 2 2 2 1 2 2 1 2 1 2 4 2 1 1 1 2 4
15 17 17 16 13 12 14 11 10 9 9 8 8 8 8 8 8 6 5 3 3 3 3 3 4 3 4 4 4 4 5 4 4 5 3 3 3 2 2 2 4 7 8
Wind_Direction
208 222 223 232 230 234 242 249 252 258 262 263 264 267 269 274 280 275 276 275 270 270 268 264 264 261 261 252 246 243 242 233 238 264 263 262 266 272 260 266 279 280 277
172 176 182 224 247 245 248 259 263 260 261 260 275 288 290 286 282 280 281 279 276 275 272 268 265 263 254 251 246 241 240 237 235 249 250 256 268 269 263 282 283 285 278
126 127 118 127 144 162 184 210 261 279 285 289 291 291 288 288 288 285 281 280 278 278 277 274 272 271 265 256 252 245 241 244 233 247 255 253 265 264 274 293 304 295 280
121 124 115 85 60 65 26 339 299 296 298 299 301 298 299 300 297 294 293 291 286 281 277 275 273 269 267 267 257 251 248 243 233 227 234 244 243 252 262 272 269 273 238
111 122 110 121 115 63 355 328 325 320 317 321 317 314 315 313 312 310 305 299 294 290 285 280 275 270 270 266 267 264 253 246 235 226 221 205 215 215 241 217 197 186 151
116 105 98 108 82 63 31 5 353 347 348 343 336 336 333 324 315 324 318 302 297 291 290 288 282 278 274 269 263 261 257 242 229 215 216 214 208 193 185 193 167 170 158
109 99 95 84 71 53 30 17 7 352 344 345 344 339 327 323 327 327 321 311 302 294 286 282 284 280 276 267 264 264 262 252 233 217 218 214 185 187 179 174 179 180 168
104 97 87 72 63 49 36 26 358 356 6 358 345 334 335 335 337 326 327 326 308 298 291 297 286 281 277 274 266 256 262 243 226 218 223 216 208 199 174 174 174 156 137
89 82 72 75 81 63 47 27 13 18 10 359 351 346 351 344 350 345 342 339 328 324 317 313 303 301 286 283 273 245 213 205 209 207 208 209 187 182 174 159 154 150 150
98 104 109 99 77 58 50 41 36 32 21 17 10 9 4 359 7 1 355 345 330 329 333 327 321 316 303 295 267 225 201 198 194 192 185 181 180 178 175 170 167 176 154
122 113 89 75 67 61 57 48 40 39 35 29 25 18 14 10 10 14 7 359 351 342 337 335 333 333 304 296 277 234 216 196 186 179 167 165 168 153 167 169 171 175 164
94 83 82 80 74 65 60 54 46 44 40 33 26 22 15 9 9 9 14 8 2 351 344 341 340 338 339 298 272 236 210 181 174 172 169 164 151 139 149 154 163 160 171
103 109 99 92 79 69 63 57 52 42 35 23 11 5 0 1 1 12 7 12 10 2 350 349 349 4 5 354 335 227 185 188 166 159 154 142 135 132 133 130 131 131 111
121 114 115 100 84 72 66 60 53 44 34 18 10 1 1 9 6 4 4 5 3 8 10 14 18 27 40 63 77 93 89 75 74 138 126 129 131 126 133 133 130 130 118
121 121 109 96 91 81 66 62 56 45 32 12 17 15 9 11 3 10 13 12 14 23 25 21 20 23 32 46 53 82 97 105 101 50 61 64 98 101 115 118 123 124 123
132 128 126 120 103 82 67 59 49 56 42 21 21 17 8 1 14 20 22 25 27 30 34 20 15 32 36 37 45 57 70 87 101 110 104 80 65 92 101 95 104 110 110
148 144 133 116 113 117 115 75 50 32 33 25 3 356 356 356 8 19 28 36 32 34 28 25 20 22 31 45 53 58 70 85 108 102 107 99 81 64 63 94 103 109 117
150 156 150 159 165 166 148 99 11 349 350 342 333 340 350 354 1 15 21 37 33 37 33 31 34 40 44 48 52 62 82 91 91 94 94 92 84 70 58 38 31 48 130
173 177 179 181 182 188 212 254 280 292 295 306 318 334 334 345 355 8 16 26 35 37 40 44 38 31 31 43 49 77 81 89 111 129 130 125 116 118 123 142 149 174 241
201 200 197 200 204 213 226 245 259 271 281 294 308 319 328 340 346 355 353 355 357 12 24 47 44 29 13 21 30 51 76 76 63 78 133 157 171 170 181 186 180 185 204
211 213 215 217 219 222 234 248 263 273 289 298 301 302 319 313 324 331 333 352 354 346 326 343 343 344 356 12 21 39 60 72 68 61 62 74 86 91 117 154 175 187 201
218 216 215 223 231 228 240 248 259 270 285 288 298 307 323 329 323 332 334 343 358 1 313 315 328 344 334 342 8 59 61 38 40 55 58 100 115 120 132 156 181 196 196
220 222 221 224 226 239 258 258 257 265 274 284 289 300 306 311 324 339 334 342 355 344 292 290 304 321 327 330 333 345 7 84 42 53 22 181 163 202 292 302 306 315 351
222 221 219 222 219 236 263 264 255 260 266 280 289 290 290 284 287 298 318 315 316 322 326 301 293 303 307 345 35 145 332 26 93 118 94 91 111 133 130 140 152 196 321
222 221 216 215 214 225 243 254 258 252 261 273 282 296 302 294 288 268 273 278 293 301 267 260 288 281 295 311 284 268 254 322 316 188 275 235 208 255 240 216 224 285 302
215 216 216 207 210 243 257 255 251 246 256 278 287 289 292 299 297 280 270 260 271 252 252 234 243 276 272 288 293 275 268 269 261 251 262 252 258 247 255 282 307 311 312
Height
753 759 762 766 768 770 771 773 774 776 776 776 776 777 774 774 775 774 772 769 767 766 764 762 762 762 762 760 758 757 756 757 755 747 751 754 753 753 756 757 754 753 754
749 756 760 766 770 771 771 772 773 774 774 774 774 774 773 772 770 769 767 764 762 760 758 757 753 753 751 750 748 747 747 748 747 740 741 746 748 749 750 749 749 746 747
744 752 758 760 765 769 769 769 771 772 773 774 771 770 768 766 765 764 761 758 756 753 751 750 748 747 743 742 741 739 738 739 737 738 735 739 742 744 744 743 742 742 743
741 747 750 764 771 770 770 770 768 770 770 770 768 767 765 760 760 759 755 752 749 746 744 742 740 739 737 735 732 730 730 730 730 730 730 733 737 738 739 740 740 740 739
745 753 749 759 765 765 769 770 770 769 769 766 766 764 760 758 757 754 751 748 744 741 738 736 733 730 727 727 726 723 722 722 722 723 724 724 727 731 733 735 737 738 739
748 752 751 761 759 762 767 769 769 768 765 764 763 759 755 753 752 750 747 743 738 736 732 729 726 722 718 715 714 713 714 713 713 714 716 716 716 718 724 731 734 737 739
747 749 757 760 757 761 767 768 767 767 765 762 758 755 755 752 750 746 742 737 733 728 724 721 717 714 711 707 704 703 701 702 703 705 707 708 710 710 715 723 728 732 734
754 751 761 759 760 765 768 768 769 765 759 756 756 756 754 751 746 742 737 731 727 722 718 713 709 705 704 701 697 694 693 693 695 699 702 705 705 708 707 714 722 728 733
750 755 758 765 768 768 766 768 766 759 759 759 757 755 752 748 743 738 732 726 721 717 712 707 703 698 695 693 691 689 688 691 694 696 698 702 703 705 709 709 718 725 731
758 762 766 768 766 764 767 765 763 762 762 759 756 755 752 746 740 734 731 726 721 713 708 704 699 694 690 686 684 684 685 686 689 693 696 699 702 704 706 710 715 720 725
761 762 761 761 765 767 767 765 764 764 762 760 758 754 750 747 742 736 733 726 720 713 709 703 696 690 684 681 680 680 681 683 688 691 695 699 702 699 707 709 715 719 722
757 758 762 766 767 768 767 766 766 765 764 760 758 756 753 750 746 740 733 727 720 715 709 704 696 688 681 677 676 677 678 681 686 690 693 697 700 700 703 709 716 720 723
760 764 764 767 769 769 768 768 768 765 763 763 763 760 757 753 746 739 733 726 721 716 710 704 698 690 682 678 674 677 679 680 684 689 693 697 698 700 704 711 717 721 725
762 764 767 768 768 769 770 770 768 768 768 768 767 764 760 751 747 741 735 729 724 717 711 706 701 695 690 686 682 681 682 684 688 691 692 695 699 701 709 713 719 724 727
763 766 767 768 770 773 773 771 771 770 771 772 769 763 760 755 752 746 739 734 728 723 715 710 705 701 697 692 690 688 688 689 687 701 698 702 704 710 714 719 723 726 729
764 766 768 770 772 772 773 773 772 772 770 770 768 765 763 760 754 748 742 737 732 727 720 717 713 709 706 703 700 698 698 700 700 701 702 714 714 718 722 724 728 731 732
762 765 767 769 770 772 774 775 773 772 770 768 767 767 765 760 755 748 745 740 735 731 728 725 722 719 716 713 711 711 709 709 710 713 714 718 720 726 726 728 732 734 737
762 763 766 768 771 772 772 772 772 772 770 769 767 766 763 758 755 749 746 742 739 737 734 732 729 726 723 721 720 719 719 719 718 720 724 727 729 732 731 736 737 740 740
761 763 766 768 769 770 771 772 772 771 770 768 766 763 760 757 754 750 747 746 742 740 738 736 733 731 729 727 725 725 726 726 727 728 729 731 732 734 737 740 744 746 746
759 761 764 765 767 768 770 769 769 769 768 766 763 761 759 756 753 750 748 747 744 742 741 739 736 733 733 731 730 728 728 729 729 730 731 733 734 736 738 740 741 743 745
757 759 760 763 764 765 766 767 767 766 764 762 760 759 756 754 752 749 748 746 744 743 741 739 738 737 735 735 734 734 733 732 732 733 733 733 735 736 739 741 742 743 744
753 755 757 758 760 761 762 763 763 762 760 759 757 756 753 752 750 748 747 745 743 742 741 739 738 737 736 735 735 735 736 735 735 735 735 736 737 739 740 742 743 743 744
748 751 752 754 756 757 758 759 758 758 757 755 754 752 751 750 749 747 746 744 742 741 740 739 738 737 737 736 734 734 736 737 736 736 737 737 739 739 740 741 742 743 743
741 744 747 749 750 752 753 752 753 753 752 751 750 748 748 747 746 745 744 743 741 740 739 738 737 737 737 736 735 734 735 735 735 735 736 738 739 740 741 741 742 743 743
735 738 740 743 745 747 748 749 748 748 748 747 746 745 745 744 742 742 741 740 739 739 738 737 736 735 735 735 736 736 736 736 736 736 738 739 739 740 740 741 741 741 741
729 731 734 737 740 742 744 744 744 744 744 743 743 743 742 741 739 739 737 737 736 736 736 735 735 734 734 734 734 734 734 735 736 736 738 739 738 738 738 739 739 738 738